Theta_e
322 321 320 321 321 321 322 322 322 322 322 322 322 323 322 322 322 321 321 320 319 319 318 318 319 318 318 316 314 314 313 315 322 327 328 327 322 320 326 327 331 335 336 348 355 354 355 355 360 362 361 359 356 357 358 358 357 356 360 353 341 344 352 356 357 354 353 355 355 354 355 356 355 353 350 349 349 351 350 350 348 347 349 350 351 353 354 354
321 320 320 320 320 321 322 321 322 322 322 322 322 322 323 323 323 322 322 321 321 320 319 319 318 319 319 316 314 313 313 319 326 330 327 325 324 320 322 329 333 334 342 353 355 354 354 353 358 360 357 355 355 356 358 358 356 358 358 350 347 353 357 360 359 355 357 357 355 353 352 354 354 351 349 350 351 350 351 352 350 349 350 350 352 353 353 354
319 318 319 319 320 320 321 321 322 322 322 322 322 322 323 322 322 323 323 323 322 321 321 319 318 319 319 316 314 313 318 326 329 329 329 325 327 322 319 329 334 335 345 354 353 354 354 354 358 356 354 356 354 355 358 356 355 356 355 352 354 356 356 359 360 357 356 356 357 352 350 352 351 351 350 351 351 350 351 351 351 353 351 350 350 354 354 353
317 317 318 319 319 319 320 321 321 321 322 321 321 322 322 322 323 323 323 324 323 322 322 320 318 319 319 317 314 314 324 331 328 328 329 324 328 324 318 328 335 337 347 353 353 354 355 355 355 353 355 356 353 356 359 356 355 356 355 355 357 356 357 360 359 358 356 355 357 352 350 350 350 351 349 351 352 351 348 347 350 352 351 350 349 351 354 354
315 316 317 318 318 319 319 319 320 321 321 321 321 321 321 322 322 322 323 323 324 323 323 320 318 319 319 317 312 318 327 328 324 331 327 321 326 324 320 329 336 341 351 354 353 355 354 355 354 353 353 352 353 356 357 355 354 355 355 355 355 355 358 359 357 358 357 356 356 355 355 351 350 351 349 351 354 351 346 345 348 350 350 350 348 350 354 354
313 314 315 316 316 316 316 318 319 320 321 321 321 321 321 321 321 322 322 323 324 323 323 321 318 319 319 316 314 321 327 323 326 329 322 321 327 324 321 329 338 345 352 353 354 355 353 352 354 354 352 350 351 351 354 354 353 357 356 353 355 357 359 358 357 358 356 356 358 357 356 352 351 352 349 351 353 349 346 346 346 348 351 351 350 350 350 350
312 313 313 314 314 314 315 316 317 318 319 319 319 320 320 321 321 322 322 322 323 323 324 321 317 319 318 316 318 321 321 319 327 326 318 323 327 322 323 332 341 348 351 353 355 353 351 351 353 351 350 350 348 349 352 354 354 356 357 355 357 359 359 356 354 356 355 357 359 356 356 354 354 354 351 351 350 346 346 346 347 350 353 353 350 349 349 350
312 312 312 313 313 313 314 314 315 316 317 317 318 318 319 320 320 321 322 322 323 323 324 321 318 318 316 320 323 319 316 319 325 322 317 324 324 319 328 339 346 349 351 353 354 352 350 351 352 349 349 347 347 348 350 356 355 354 357 356 358 359 358 354 352 356 357 358 357 356 357 358 357 355 353 351 348 347 347 347 348 349 351 351 349 348 348 349
311 312 312 312 313 313 313 313 314 314 315 316 316 317 318 319 319 321 321 322 322 322 325 321 319 317 316 321 323 316 317 319 320 320 320 323 320 324 338 346 347 348 350 353 353 353 350 350 348 348 347 344 346 348 349 353 351 348 353 355 356 358 358 356 357 358 358 358 358 359 360 357 356 354 354 352 347 347 347 347 349 349 349 350 349 348 349 348
311 312 312 312 312 313 313 313 314 314 315 315 315 316 317 317 319 320 320 321 322 323 324 321 318 316 318 322 319 315 318 322 324 326 327 325 324 335 346 346 346 349 350 351 351 352 349 348 348 346 346 345 345 348 348 349 347 347 351 354 357 358 358 357 358 358 356 357 359 360 360 356 354 355 356 353 348 349 348 349 350 350 349 349 349 348 351 350
312 312 312 312 313 313 313 313 314 314 315 315 315 316 316 316 317 319 320 321 321 322 323 322 317 316 322 324 317 317 318 325 331 332 332 332 334 342 346 344 347 349 347 349 350 351 350 349 349 346 347 345 344 347 348 346 346 348 350 355 357 355 357 356 354 354 353 358 359 360 360 357 354 355 356 352 348 349 348 350 350 349 350 350 349 348 350 351
312 313 313 313 313 313 313 313 314 314 314 314 315 315 315 316 317 319 320 321 322 323 323 321 316 316 324 324 317 319 320 325 330 332 336 337 338 341 342 344 347 347 347 347 348 350 350 349 347 346 345 342 344 347 346 345 347 348 349 354 355 356 359 356 353 350 351 356 360 360 355 355 358 355 353 350 348 348 349 350 350 348 349 349 349 348 349 351
311 312 312 313 314 313 314 314 314 314 314 314 314 315 315 315 317 318 319 321 321 322 322 319 313 316 324 324 318 319 321 326 328 329 334 334 336 338 340 344 346 346 347 345 347 348 347 347 345 344 344 341 344 345 344 346 348 351 352 349 351 351 354 359 356 351 351 355 359 358 345 347 361 357 352 351 347 349 351 351 350 348 347 348 349 349 348 350
312 312 313 313 313 314 314 314 314 314 314 314 314 314 315 316 317 318 320 320 321 323 322 315 313 319 323 321 319 317 318 323 322 322 328 331 333 333 336 342 344 344 344 343 345 346 345 346 344 343 341 340 343 341 343 346 345 352 354 351 349 337 340 359 359 351 354 354 360 357 340 341 358 358 353 352 348 351 351 351 350 348 346 346 349 349 347 349
313 313 313 313 313 314 314 315 315 314 314 314 314 314 315 316 317 319 320 320 322 321 318 314 315 323 323 320 321 320 318 319 317 317 322 328 331 330 333 337 341 340 339 339 338 341 342 343 341 340 341 340 340 341 343 346 345 350 344 340 343 333 337 361 361 354 355 355 359 356 342 343 357 357 354 352 350 351 351 350 351 349 347 346 347 348 346 349
314 314 314 314 314 314 314 315 315 315 314 314 314 314 315 317 319 321 321 322 319 314 316 321 321 322 322 320 321 322 322 321 319 317 320 326 329 332 334 335 338 336 336 337 335 337 338 338 339 338 340 339 340 341 339 336 338 346 340 329 333 332 334 351 359 358 355 356 361 356 347 349 356 356 352 353 352 350 351 351 351 350 348 346 346 347 347 347
314 314 315 314 314 315 314 315 315 315 315 314 314 316 318 320 321 321 320 319 316 314 321 327 323 321 321 320 319 320 321 321 321 320 321 325 328 333 335 333 335 334 334 335 334 335 334 335 337 337 339 339 340 340 332 325 325 334 336 329 332 333 330 337 352 361 359 359 362 359 355 351 352 355 351 352 352 350 352 352 351 351 349 347 346 346 347 348
314 315 315 314 315 315 315 316 315 315 315 314 316 318 320 320 320 320 320 319 320 320 323 324 322 322 322 320 320 320 322 322 321 321 324 327 328 333 335 333 334 333 333 334 333 334 333 335 337 339 339 337 340 337 327 323 324 326 328 326 327 330 330 330 340 355 360 360 360 356 357 355 352 355 353 351 352 351 352 352 351 350 349 347 346 346 345 347
314 315 315 314 315 314 315 316 315 316 314 315 318 320 320 319 321 323 323 323 326 326 325 324 323 322 319 320 321 321 324 323 322 322 327 328 328 332 332 332 333 333 332 334 334 334 336 339 338 336 335 336 339 336 332 333 333 330 330 328 325 325 329 333 339 348 352 353 358 355 352 354 352 354 354 352 352 352 353 352 352 351 350 347 345 344 345 345
313 314 314 314 315 315 315 315 316 316 314 316 320 323 325 326 327 328 325 324 325 325 324 324 323 321 320 321 320 321 323 323 322 322 326 327 329 330 329 330 332 330 331 334 336 336 337 338 336 333 334 336 337 337 337 337 336 336 333 331 329 325 326 337 344 346 350 344 346 352 351 351 349 350 354 353 352 354 353 354 353 352 351 349 346 345 346 345
313 313 314 314 314 315 316 316 315 316 314 315 320 326 327 327 328 327 325 324 325 325 324 323 323 324 322 321 323 323 322 324 323 322 325 327 329 329 328 329 329 330 330 332 334 337 338 335 335 336 335 337 337 335 337 336 336 337 334 329 326 326 327 336 344 346 353 344 337 348 353 351 351 350 352 354 353 353 352 352 353 351 351 349 349 347 346 345
313 313 314 314 315 315 315 315 315 315 314 314 318 324 324 326 326 326 326 325 326 327 325 324 324 324 324 323 324 323 322 324 323 321 324 326 326 327 328 329 329 329 329 331 335 335 334 334 336 338 337 337 336 334 334 336 337 335 333 328 323 326 327 334 346 350 353 345 338 347 347 346 351 350 351 355 354 354 351 351 352 351 352 350 350 349 347 346
313 314 314 314 315 315 315 316 315 315 314 316 321 324 325 326 325 325 325 326 326 326 325 325 325 324 324 324 324 323 322 323 323 322 323 324 325 327 328 329 329 328 328 332 333 327 325 331 336 336 334 335 334 333 334 333 334 334 331 324 321 327 324 324 340 356 357 349 344 350 348 346 351 351 353 355 355 355 352 350 351 350 351 351 349 349 348 347
313 314 314 315 315 315 316 315 315 315 314 317 322 323 325 325 325 326 326 326 327 325 325 325 325 324 326 326 326 324 323 324 325 323 322 322 325 326 326 328 327 328 329 332 331 326 325 330 333 333 333 334 333 333 333 330 328 330 331 326 322 326 324 322 334 348 351 351 356 355 339 337 348 352 355 357 357 358 355 352 352 350 350 349 348 348 348 347
314 314 315 316 316 316 315 314 316 318 317 319 321 323 324 324 325 325 326 326 325 325 324 324 325 324 326 326 324 325 325 325 324 324 323 323 324 326 325 327 327 327 329 329 328 327 329 330 329 330 330 331 330 331 332 328 323 324 329 329 327 328 327 325 330 334 329 333 356 353 325 322 338 346 352 358 359 360 358 355 353 352 352 350 350 348 348 348
316 316 317 317 317 315 315 320 321 319 321 323 324 323 323 324 325 324 327 324 320 322 325 323 325 324 324 326 325 325 325 325 325 325 324 324 324 326 326 327 328 327 328 328 329 327 328 328 329 330 329 329 330 328 329 329 321 319 325 329 330 329 327 325 326 326 317 322 348 349 323 318 326 337 352 359 361 361 359 358 355 354 353 350 351 349 347 347
318 319 318 318 317 315 319 324 321 320 325 325 324 323 323 324 324 325 325 319 316 322 325 323 324 323 323 325 325 323 322 323 325 325 324 325 324 326 327 328 328 327 328 328 325 324 328 329 328 330 330 328 327 326 329 330 322 320 327 329 329 329 328 326 324 322 322 326 338 344 332 319 316 331 356 355 353 360 360 361 357 354 354 351 351 350 348 348
320 319 318 318 317 316 320 322 321 323 325 324 323 323 323 324 324 327 323 315 317 323 324 322 323 322 323 325 325 324 323 323 325 325 325 324 324 326 326 328 327 326 330 327 319 323 330 329 328 330 328 326 326 326 329 330 325 325 330 329 330 331 331 329 325 322 326 324 321 329 335 322 314 330 355 354 347 351 355 359 359 356 355 353 350 349 348 348
321 320 320 318 318 317 318 319 321 324 323 323 323 323 324 324 325 327 320 315 320 324 323 322 322 323 324 324 324 325 324 323 323 325 325 324 324 326 325 327 328 326 327 326 323 326 329 328 328 329 327 326 327 329 329 329 328 328 329 329 332 334 333 332 327 323 325 320 314 320 327 319 313 321 340 347 341 342 349 353 355 357 356 354 352 349 348 347
322 322 321 320 320 318 317 318 320 322 322 322 323 323 324 325 325 321 315 316 322 323 323 322 323 324 325 325 325 325 324 324 323 323 324 324 323 324 325 326 327 327 328 328 326 328 328 328 329 328 327 328 328 328 328 328 328 328 328 329 331 333 335 333 329 325 321 317 316 319 322 321 315 315 325 338 338 337 341 344 350 354 355 355 353 349 349 348
324 323 321 321 322 320 320 322 322 321 322 322 323 324 324 327 324 316 314 319 321 322 324 325 326 326 326 327 326 325 325 324 324 324 324 325 323 324 324 324 325 325 325 324 325 327 327 327 328 328 327 328 328 328 328 328 329 327 328 326 322 323 327 325 324 323 318 316 318 320 324 322 315 316 324 333 336 336 338 341 344 349 353 357 355 351 349 348
325 324 322 321 321 321 322 325 323 322 323 323 324 326 325 323 319 314 317 320 318 322 326 326 327 326 325 327 327 326 326 324 324 324 325 324 324 324 323 323 324 320 316 317 320 322 325 326 327 327 326 327 327 326 325 327 327 327 326 322 316 315 317 317 317 318 316 316 320 322 325 323 316 320 329 332 333 335 339 340 342 343 347 354 355 352 350 349
324 323 323 322 321 322 322 323 323 323 324 324 326 328 324 318 315 316 320 320 319 323 326 326 326 325 324 324 325 326 326 324 324 323 325 326 324 324 324 325 326 321 316 317 316 315 319 324 326 326 326 327 327 324 321 322 325 326 322 316 314 314 316 316 315 316 315 315 319 325 328 321 315 322 331 333 333 338 341 342 344 344 345 349 352 352 350 350
324 324 324 323 323 324 323 324 324 324 324 326 327 327 321 315 316 319 321 323 324 325 326 327 327 325 325 324 325 326 325 324 324 324 325 325 324 323 324 324 325 325 322 318 315 314 313 316 321 325 324 325 327 326 324 325 325 326 327 323 316 314 316 316 315 315 315 314 318 326 326 316 312 323 334 334 335 339 341 342 346 349 350 351 352 351 351 350
325 325 325 326 326 326 326 325 325 323 324 328 327 324 318 314 317 321 321 326 327 326 326 328 327 325 324 326 326 326 324 322 323 324 323 324 323 322 325 325 324 326 324 317 315 316 312 313 321 325 325 326 327 326 329 328 324 325 330 323 316 317 318 315 314 314 314 314 316 319 319 317 321 330 333 335 337 341 344 346 349 349 349 351 351 352 352 351
326 327 328 329 327 325 326 326 324 324 325 327 324 320 318 319 322 323 325 327 326 327 327 326 327 323 320 323 327 326 324 323 322 322 323 323 324 324 325 326 325 326 324 319 318 317 311 313 323 326 324 326 326 326 329 325 322 324 322 317 321 327 323 313 312 315 313 312 314 314 314 318 322 325 330 336 338 343 348 347 347 349 348 349 350 352 352 351
329 331 329 329 326 325 327 326 324 325 327 326 323 321 324 326 326 326 328 328 326 328 326 321 323 323 319 319 324 326 324 322 322 320 319 320 323 326 327 326 325 325 326 323 320 321 315 313 322 326 323 324 326 326 328 326 325 322 317 319 326 328 324 318 314 315 314 313 314 313 312 313 313 317 329 336 335 339 349 349 346 350 351 350 351 353 354 353
332 333 330 328 326 326 327 324 324 327 327 325 327 326 328 328 328 327 328 328 327 328 326 322 323 326 322 319 321 327 325 321 320 320 318 319 323 328 329 326 326 326 327 325 322 324 321 313 318 326 323 325 327 325 324 325 327 325 321 325 325 318 316 317 314 314 314 313 313 312 312 312 310 314 324 331 329 334 349 353 349 349 350 351 351 354 355 354
333 331 330 328 325 325 326 324 325 328 326 326 327 327 327 327 328 327 327 327 326 327 327 326 326 327 326 323 324 328 327 321 320 321 320 321 323 328 330 328 329 329 329 329 325 324 324 315 314 324 325 324 325 322 317 319 325 325 323 327 326 320 317 316 316 315 312 312 313 312 312 312 315 321 326 329 332 334 345 352 351 348 348 349 350 354 355 356
332 330 329 326 325 325 325 326 328 328 327 326 327 327 327 327 328 328 327 327 327 327 329 329 329 328 327 329 328 328 328 325 323 323 322 324 325 326 330 330 330 331 330 330 327 324 326 320 313 320 324 321 319 321 320 320 322 321 319 319 320 321 320 319 317 314 312 312 312 313 312 310 319 331 331 331 336 340 346 351 351 349 347 349 351 354 356 358
330 330 329 326 325 325 326 328 329 328 327 327 327 327 327 327 327 327 328 328 328 328 329 329 330 330 329 329 328 328 330 328 326 325 324 326 326 327 329 329 329 332 331 331 329 324 323 321 315 315 317 314 317 325 325 324 326 324 320 319 318 318 317 315 316 314 313 312 311 313 311 311 322 334 333 336 347 349 350 350 350 349 351 352 354 356 359 359
330 330 328 325 325 326 327 328 328 327 327 326 326 326 326 326 327 327 327 328 329 328 329 329 330 331 332 331 330 330 330 329 328 328 326 327 329 329 329 329 328 331 332 331 331 327 326 323 318 313 315 319 322 327 325 325 326 326 324 324 325 322 316 311 312 313 313 312 312 313 311 314 329 339 337 345 352 352 353 351 349 352 354 357 356 357 359 359
327 328 326 325 325 326 328 327 326 327 327 326 325 325 325 326 326 327 327 327 328 328 329 330 330 330 332 332 332 332 330 328 329 330 329 330 331 328 329 329 327 330 333 333 333 330 327 323 317 315 318 323 325 325 326 326 325 324 323 325 326 323 320 318 317 317 314 312 312 313 310 315 333 347 347 351 352 350 353 354 353 353 355 359 360 360 361 360
325 326 325 325 326 326 328 329 328 328 326 325 326 325 325 325 325 326 326 326 327 328 329 330 329 329 330 331 332 333 330 328 329 330 330 331 331 329 328 328 328 329 331 332 333 332 329 324 318 314 315 317 318 320 321 322 323 322 324 326 326 325 325 323 321 319 316 312 312 313 310 314 335 350 349 351 349 346 352 356 355 352 355 359 361 363 363 361
325 326 324 324 326 326 327 327 327 327 327 326 326 326 325 325 324 325 326 325 326 326 328 328 328 327 328 329 331 333 331 329 329 331 330 330 330 330 328 328 328 327 328 335 337 335 333 332 323 316 313 313 313 314 315 318 320 322 323 326 326 326 325 321 317 315 314 313 314 313 311 316 334 350 348 348 349 349 353 356 355 354 356 359 361 361 362 363
324 325 324 324 324 325 324 325 326 327 326 327 326 326 325 326 324 324 324 325 324 325 326 326 326 326 327 328 329 331 332 331 330 331 331 331 331 330 328 329 328 327 336 345 340 332 337 337 331 322 318 317 316 318 323 323 319 317 319 323 325 326 327 323 316 312 314 315 314 316 317 315 324 343 349 346 346 350 353 354 356 358 360 361 363 362 364 365
322 324 324 325 324 324 325 324 324 325 326 326 326 325 325 325 325 324 324 324 324 324 325 325 325 326 327 328 328 328 330 332 333 333 332 331 331 330 328 328 328 330 340 343 333 331 334 330 330 330 325 324 325 325 328 328 320 318 320 321 322 325 326 321 315 316 319 315 312 320 324 316 319 336 345 343 343 347 351 352 355 361 361 363 364 363 364 365
322 321 321 322 324 324 325 324 324 324 324 325 325 324 325 325 325 325 324 324 323 323 325 326 325 325 325 326 326 328 329 330 332 333 333 331 330 330 330 330 329 330 334 332 328 333 331 324 329 332 326 328 331 329 329 327 325 324 323 322 323 324 322 319 317 321 323 316 313 321 326 322 323 328 336 340 341 341 347 353 356 360 362 362 362 361 362 363
321 321 320 321 323 323 322 322 323 324 324 325 325 324 324 324 324 324 322 323 324 323 323 326 324 322 323 324 325 328 329 327 329 332 332 331 330 332 333 331 330 330 330 329 330 332 329 327 331 331 327 328 330 329 330 327 324 323 324 324 326 325 322 322 322 325 326 321 320 325 327 327 332 335 337 340 339 340 350 357 357 359 361 361 360 360 362 363
321 322 322 323 322 323 322 322 324 324 323 325 325 324 323 323 323 323 322 322 324 324 322 323 323 320 321 322 322 325 328 327 328 329 328 328 329 331 332 332 330 329 329 329 332 332 329 329 333 333 327 325 327 329 328 327 324 322 322 326 326 325 323 323 323 326 325 321 325 329 325 327 340 349 348 345 344 348 353 354 357 359 360 360 360 360 364 364
319 319 321 324 324 323 323 322 323 324 324 324 324 323 322 322 321 321 322 321 321 322 321 320 321 320 320 321 321 323 325 324 325 325 325 325 327 327 329 329 328 328 329 330 331 332 331 330 332 332 324 321 325 326 325 326 325 318 319 326 327 323 322 322 324 325 324 323 323 322 319 327 344 351 350 349 350 351 350 352 357 359 359 360 360 361 363 362
319 318 320 324 323 323 324 323 323 324 323 322 321 321 320 320 320 320 322 322 320 319 320 318 320 321 321 323 323 323 322 321 322 322 321 323 323 324 324 325 326 326 328 329 330 331 333 330 329 329 323 320 324 325 324 321 318 315 322 332 334 330 326 324 325 327 330 328 323 320 324 337 347 346 346 350 350 349 350 351 355 358 360 360 359 359 358 357
Wind_Speed
10 10 10 11 11 11 11 11 11 11 11 11 11 12 12 12 12 12 12 11 12 12 13 13 12 12 12 12 13 13 15 15 11 9 11 9 6 6 4 10 14 15 16 13 13 12 10 8 5 4 4 2 1 1 0 1 2 3 3 2 1 2 2 2 4 4 2 5 5 4 2 2 6 5 5 6 5 7 7 6 6 7 6 9 15 19 21 21
10 10 10 11 11 11 11 11 11 11 11 11 12 12 12 12 12 12 12 12 12 12 13 13 12 12 11 12 12 12 16 14 12 14 13 11 8 7 7 11 15 17 18 14 14 12 8 7 6 6 3 1 1 1 1 1 2 2 3 2 2 5 3 2 4 5 3 4 3 3 3 2 5 6 5 5 7 7 6 7 7 9 11 12 17 19 20 20
10 10 10 10 11 11 11 11 11 12 12 12 12 12 12 12 12 12 13 13 12 12 12 12 11 11 11 11 11 11 13 11 12 10 3 5 6 9 11 13 15 17 17 13 12 9 4 5 7 6 2 1 1 1 1 1 2 1 3 1 5 5 2 4 4 5 4 4 2 3 3 3 4 4 5 4 6 6 4 7 8 10 13 14 17 19 20 19
10 10 11 10 11 11 12 12 12 12 12 12 12 12 12 12 12 12 13 13 13 12 12 11 11 10 10 10 10 10 9 9 9 1 3 7 4 9 14 16 16 17 15 10 10 7 2 4 6 4 3 1 2 1 0 1 2 1 2 3 6 3 1 6 5 4 4 3 2 2 3 4 4 3 4 4 4 4 3 6 7 9 15 16 17 19 19 19
10 11 11 11 11 11 12 12 12 12 12 12 12 12 12 12 12 12 12 13 13 12 12 11 10 9 9 9 8 8 7 7 1 6 5 11 7 8 17 18 17 17 13 10 10 7 4 5 5 5 3 1 2 2 1 2 3 1 1 4 4 2 1 7 5 2 2 2 1 1 1 2 2 3 4 4 2 3 4 6 7 10 14 17 19 19 19 19
11 11 11 11 11 11 12 12 13 13 12 12 12 12 12 12 12 12 12 13 13 12 11 10 8 7 8 7 6 5 6 5 4 5 9 13 5 11 19 20 19 17 14 11 11 8 6 5 5 3 2 1 3 2 3 2 2 2 2 3 2 1 2 6 5 2 1 1 2 2 2 2 3 4 3 4 1 5 5 6 8 11 14 18 20 20 18 18
11 11 11 11 11 11 12 12 13 13 13 12 12 12 12 12 12 12 12 13 13 12 11 10 7 7 7 5 4 2 9 8 3 6 11 12 1 16 21 22 21 17 14 13 11 8 6 6 4 2 2 2 4 4 4 2 2 2 1 3 2 2 2 4 5 3 1 1 2 2 2 2 3 2 2 5 2 4 4 7 9 12 15 17 18 18 18 18
12 12 12 12 11 11 12 12 12 12 12 12 12 12 12 12 11 11 12 12 13 12 11 10 7 6 4 3 4 5 10 7 4 8 10 8 8 21 23 23 20 17 15 13 10 7 6 5 3 3 2 4 4 3 4 1 3 1 2 3 3 3 3 3 3 3 1 1 1 3 3 1 2 1 3 5 3 4 5 8 10 12 15 16 16 17 17 17
12 13 13 13 13 12 13 13 13 13 12 12 12 12 12 11 11 11 11 12 12 11 10 9 7 6 3 2 6 7 5 2 5 9 6 1 13 23 23 20 19 17 14 12 9 7 5 2 0 3 4 4 4 3 3 1 1 3 2 3 4 3 3 2 2 2 1 1 1 3 3 3 1 2 3 5 4 6 6 8 10 12 14 14 15 16 16 16
12 13 13 13 13 13 14 14 14 13 12 12 12 12 12 11 11 11 11 12 12 12 10 8 7 5 4 4 7 6 1 2 3 3 2 7 16 23 20 17 19 17 13 11 10 7 3 1 2 3 3 2 3 3 3 3 3 4 2 3 4 3 2 2 2 2 2 2 2 4 3 3 3 4 3 4 6 7 7 9 10 11 13 13 14 15 15 15
13 13 13 13 14 14 14 15 14 14 13 13 12 12 12 11 11 10 11 11 11 11 10 8 6 5 4 6 8 5 3 4 2 2 7 12 18 23 20 17 19 17 13 11 9 7 3 0 2 3 2 2 4 2 3 4 3 2 2 3 4 3 3 3 2 1 1 2 1 3 4 4 4 4 3 6 7 8 8 10 11 10 11 13 14 14 13 14
14 14 14 14 15 15 15 15 15 14 14 13 13 13 12 11 10 10 10 10 10 11 9 7 5 4 5 7 10 7 0 2 2 4 6 12 16 19 15 13 16 14 10 9 8 7 5 1 2 5 3 5 6 1 3 3 2 1 1 1 3 4 4 4 4 2 1 2 2 2 5 7 8 7 4 8 8 8 9 10 10 10 10 11 13 12 11 12
15 15 15 15 15 15 16 16 15 14 14 14 14 13 13 12 10 10 9 9 9 9 7 5 3 4 5 6 6 8 6 3 3 2 4 9 12 12 9 10 13 10 7 7 6 7 6 2 4 6 5 6 4 3 1 1 0 2 1 3 2 5 4 4 5 5 3 2 2 2 4 3 7 8 7 8 9 9 9 10 10 9 9 10 11 11 11 12
16 16 15 16 16 16 17 16 16 15 14 14 13 13 13 12 11 9 9 9 8 6 5 3 3 5 6 7 4 6 9 6 7 8 6 8 10 11 9 9 10 8 6 4 4 5 6 4 5 6 4 5 4 2 5 4 2 2 1 2 2 1 4 4 5 5 4 3 4 4 3 0 2 7 9 8 9 10 9 10 10 9 9 10 10 11 11 12
17 16 16 16 16 17 17 17 16 15 14 13 12 12 12 12 10 8 7 7 6 4 2 2 6 5 6 9 5 6 8 8 11 13 11 11 11 11 12 13 11 9 6 4 3 4 5 5 6 5 2 2 4 6 5 3 3 2 1 1 0 1 4 6 4 5 4 2 4 5 3 1 3 6 9 9 10 10 9 10 11 10 10 10 10 11 10 11
18 17 17 16 16 17 17 17 17 15 14 12 11 11 11 10 7 5 4 4 4 5 4 3 7 6 7 5 3 4 6 7 9 11 12 12 11 10 12 14 11 9 8 5 4 3 4 5 5 5 3 4 6 5 3 3 4 3 2 1 2 1 1 5 5 6 6 3 4 7 4 1 3 6 9 10 11 11 9 10 11 10 10 11 10 10 10 10
19 18 17 17 16 16 17 17 17 15 13 9 9 8 7 5 2 2 5 8 7 8 4 1 4 6 7 2 3 4 5 6 5 8 13 12 10 10 14 13 10 10 10 7 5 5 5 5 4 3 4 6 4 4 4 3 3 3 1 0 1 2 1 2 4 5 8 7 6 7 7 6 1 6 9 10 11 11 10 10 12 11 10 10 10 10 10 10
19 18 17 17 16 16 16 16 16 14 11 7 4 2 2 3 6 6 8 11 8 6 3 3 4 5 6 5 4 1 1 4 5 7 11 11 10 12 15 12 10 12 10 7 8 7 6 5 4 4 5 5 4 6 5 0 1 1 1 2 1 2 1 2 2 3 7 8 8 8 8 9 6 6 8 10 11 11 11 10 11 11 11 10 10 11 11 11
20 18 16 16 16 15 15 15 14 12 8 2 3 5 7 7 7 4 6 8 6 4 2 4 8 4 1 2 4 1 2 3 6 8 12 13 12 14 12 10 11 12 9 7 8 9 7 5 5 6 5 6 6 6 5 3 4 5 5 4 5 4 2 2 2 2 4 6 7 9 9 9 7 6 8 10 12 11 11 10 10 10 11 11 11 11 11 12
20 18 16 16 15 15 14 13 12 10 4 4 6 3 3 4 4 4 7 8 10 9 6 4 10 7 2 3 2 2 3 5 6 8 13 14 15 15 11 10 11 10 9 8 8 8 8 7 7 8 7 6 5 6 7 6 5 6 6 5 5 5 2 2 1 3 4 5 6 7 9 9 7 5 8 10 12 12 12 12 11 11 11 11 12 12 12 12
20 18 16 15 14 13 12 12 10 7 3 7 8 4 3 3 3 1 3 9 14 15 13 8 10 10 6 1 4 2 1 5 6 8 14 15 15 14 11 11 11 9 11 12 7 6 7 9 9 10 7 4 4 5 7 6 6 7 6 6 5 4 2 2 2 3 4 4 5 5 8 10 8 7 8 11 13 14 14 14 14 14 13 12 13 14 13 12
19 18 16 14 14 12 10 10 7 5 3 8 8 8 5 4 3 4 3 6 10 13 15 13 12 11 9 7 4 3 4 5 7 10 14 14 14 12 11 12 12 10 11 12 7 5 8 11 12 9 4 3 6 6 7 8 8 7 6 6 4 3 3 2 4 4 5 3 5 6 7 9 8 8 8 12 14 13 14 15 14 14 14 13 13 13 13 12
19 17 15 14 12 11 9 7 5 4 6 8 9 9 4 3 4 4 4 6 4 8 10 12 12 12 11 11 8 6 7 7 7 11 15 15 13 12 11 13 14 12 12 12 10 8 8 8 11 8 4 7 9 7 8 9 8 7 6 5 4 3 4 1 4 5 6 5 5 6 7 9 7 7 9 11 13 11 13 15 14 14 14 14 14 14 14 14
19 16 14 12 10 9 6 4 3 4 7 9 11 9 4 3 4 5 5 6 4 4 5 5 7 9 9 6 6 11 10 7 6 9 16 16 12 11 12 13 14 12 11 14 15 14 10 3 3 7 7 10 11 9 9 8 7 8 8 7 6 6 8 6 1 1 5 8 6 6 6 5 3 5 7 9 11 11 12 14 14 14 15 15 15 15 14 15
17 15 12 9 8 5 2 2 3 4 6 8 10 9 5 4 4 5 5 5 3 4 3 3 3 4 4 3 6 9 9 9 10 7 15 17 13 10 10 10 11 12 13 15 14 13 12 4 5 6 7 7 10 9 9 8 7 7 7 5 6 7 9 8 5 4 5 5 4 5 5 2 3 4 4 7 10 12 12 14 15 15 15 15 15 14 15 15
16 13 10 7 4 4 4 1 4 6 7 5 4 4 4 5 4 4 4 4 3 4 3 4 3 2 3 4 8 7 6 9 12 9 13 17 14 10 10 7 7 11 12 13 10 7 10 8 8 9 7 7 8 7 8 8 7 5 2 1 5 7 9 9 6 5 5 1 3 4 5 1 2 4 5 6 9 12 12 14 16 15 15 15 14 14 15 15
14 10 6 2 5 9 4 2 7 7 4 4 4 3 3 5 5 4 4 4 2 2 1 2 1 1 2 4 9 9 2 4 10 12 13 15 14 10 11 9 7 9 7 6 7 6 9 12 10 11 11 10 8 7 7 7 8 3 4 2 6 7 9 9 7 5 4 2 3 5 5 5 2 4 6 6 7 9 12 14 15 15 15 16 15 15 16 16
12 7 2 2 9 10 4 4 6 3 2 5 5 4 5 5 5 4 5 2 2 1 0 2 2 1 1 4 10 9 2 4 7 12 14 16 15 10 11 13 10 11 9 6 8 6 8 14 14 13 14 10 9 9 6 7 9 5 1 4 6 6 8 8 6 5 3 4 4 4 4 5 3 4 7 6 5 8 11 13 15 16 16 17 17 17 17 16
10 6 3 4 8 8 7 6 4 1 3 3 3 4 4 4 5 4 5 2 2 0 1 2 3 3 3 5 10 11 5 2 2 5 12 15 13 8 8 12 12 12 12 11 11 5 5 8 10 12 12 9 10 11 8 8 8 4 1 4 5 4 6 5 5 3 3 5 3 2 3 5 3 3 5 5 4 6 8 10 13 15 16 16 16 17 17 16
9 6 5 7 7 6 8 6 3 2 2 2 4 2 4 5 4 5 4 0 1 2 2 2 2 2 4 5 7 10 10 5 2 6 10 11 12 9 4 6 10 9 9 11 14 9 2 2 3 8 10 8 9 9 8 10 8 2 3 7 6 4 3 3 3 3 4 5 2 1 4 5 5 1 3 3 2 1 2 3 6 11 14 15 15 15 16 16
8 7 7 8 7 6 6 4 2 2 2 5 2 3 6 4 4 5 1 1 2 2 1 1 2 0 5 6 4 7 11 8 5 9 10 9 11 11 7 5 7 7 8 8 11 12 9 7 5 7 8 6 7 6 5 7 7 5 6 7 5 4 3 4 4 4 6 5 1 0 4 6 5 2 1 1 1 2 2 1 2 6 11 13 14 14 15 15
8 8 8 8 7 5 2 2 1 2 4 3 2 5 5 4 4 2 2 1 2 3 4 4 5 3 5 8 6 6 8 8 7 9 9 10 10 10 11 10 7 8 9 7 9 11 11 11 10 9 8 8 9 7 7 7 7 7 7 6 6 5 5 5 5 5 6 4 1 1 4 5 6 6 5 4 2 3 3 2 3 4 7 11 13 14 14 14
10 11 10 8 7 4 3 3 2 5 4 3 5 5 5 4 2 2 4 1 2 4 5 6 6 5 5 5 4 5 7 7 8 9 9 10 10 10 14 14 11 10 8 7 8 9 8 9 13 12 9 10 12 8 7 8 8 9 8 6 6 5 5 7 6 5 5 3 1 1 4 5 6 5 4 4 3 1 1 2 2 2 4 7 10 12 13 14
12 13 12 11 10 8 6 6 7 8 4 5 6 4 5 3 2 1 2 4 5 6 6 6 7 3 1 2 2 3 5 5 7 7 7 9 9 9 11 13 14 11 8 7 6 6 8 7 10 13 9 11 15 13 9 7 7 10 9 7 7 6 5 6 5 4 5 2 2 2 3 5 4 1 1 3 3 1 2 2 1 2 3 5 7 9 12 14
13 13 12 11 10 10 10 10 11 9 5 6 6 3 3 2 3 2 3 5 6 7 8 7 7 5 2 4 3 2 2 2 7 7 5 7 8 8 9 10 13 13 9 7 5 4 9 6 5 11 9 9 14 14 12 9 6 7 7 7 8 6 5 5 5 5 5 3 3 5 4 5 4 3 4 5 5 4 4 3 3 5 6 6 7 8 10 12
9 9 9 7 7 11 12 12 12 9 5 6 5 2 1 3 4 4 5 6 6 8 10 7 4 5 2 2 3 2 1 1 6 7 4 5 3 1 3 4 8 13 11 7 4 4 7 4 5 8 8 10 13 13 14 12 6 4 6 8 6 4 5 6 5 5 5 7 5 4 5 6 5 4 3 4 5 4 4 4 4 6 8 8 7 7 9 10
3 3 5 6 9 14 14 12 11 7 6 6 2 1 2 3 4 6 6 7 7 6 9 5 2 5 4 1 4 3 2 2 5 5 4 3 1 6 4 3 1 6 10 9 6 4 5 4 4 6 9 10 9 9 13 15 10 5 6 8 7 4 6 6 5 4 6 7 4 4 7 7 4 3 2 4 5 2 4 3 5 8 8 8 7 7 8 9
2 2 3 7 13 17 15 11 8 6 6 3 1 3 2 3 5 7 7 7 5 5 6 3 3 5 4 2 4 4 1 2 5 4 0 1 1 6 6 2 3 3 5 7 7 3 4 6 3 5 6 7 7 7 10 12 12 8 4 4 5 5 6 6 5 6 6 6 5 5 6 6 5 3 4 5 4 1 5 4 6 9 8 7 7 8 8 9
4 5 3 8 13 16 15 10 5 6 5 2 2 3 2 3 6 7 7 5 4 4 4 3 2 3 4 4 3 4 3 1 5 5 1 3 2 6 8 4 3 5 5 6 8 5 4 7 4 4 3 5 7 8 8 9 10 9 5 4 5 4 5 4 5 6 6 6 6 4 5 5 4 3 3 3 3 2 4 6 5 7 7 6 6 8 8 8
4 4 3 8 13 15 13 7 5 4 2 1 2 2 2 3 5 7 7 5 3 3 4 3 3 3 3 3 3 4 3 2 5 6 4 3 3 5 8 8 6 8 7 6 10 8 7 7 5 3 4 4 6 9 11 10 10 10 8 9 8 5 4 4 5 6 5 5 5 4 5 4 1 0 4 3 2 2 2 6 6 6 6 6 7 8 7 7
4 3 3 9 15 14 10 6 2 0 1 2 3 4 3 4 6 6 7 6 4 3 4 5 5 5 4 4 3 4 3 2 4 4 5 3 2 4 8 9 8 10 7 6 8 8 7 6 8 6 4 7 8 9 9 9 7 9 9 10 10 8 7 7 7 7 5 6 5 4 6 3 3 1 3 1 3 2 2 6 7 6 7 8 8 8 7 6
4 1 4 11 16 12 8 2 2 1 1 3 3 4 3 3 5 7 7 7 5 4 3 4 6 6 5 5 4 4 4 1 2 2 5 5 4 3 7 9 10 10 6 4 3 5 5 4 8 8 7 9 6 6 3 5 5 6 7 8 10 10 9 9 8 7 6 7 5 5 7 2 4 1 0 3 4 4 3 5 7 8 8 8 8 8 8 6
1 2 4 11 15 10 6 1 3 1 3 4 2 3 4 4 6 7 8 8 6 5 4 4 6 6 6 6 6 5 5 3 2 3 3 6 7 5 5 8 11 10 6 5 5 2 2 5 7 7 6 8 6 5 5 4 6 7 7 7 8 8 8 9 8 6 6 7 6 6 7 3 4 2 2 5 5 5 5 5 8 9 8 8 8 8 7 6
3 3 3 10 12 6 5 1 2 3 4 3 3 5 4 5 8 8 8 9 8 5 4 5 6 6 6 6 5 5 6 3 1 3 2 2 4 3 2 5 9 9 6 6 5 3 2 5 7 7 7 8 8 8 8 6 6 7 8 10 11 11 11 10 8 6 6 8 8 7 6 3 4 2 2 4 6 8 8 7 7 8 8 8 8 7 6 6
1 1 3 8 10 5 1 3 3 2 5 4 5 6 3 4 7 8 8 8 9 7 5 5 5 6 6 5 3 4 5 3 1 1 0 2 1 1 1 3 7 7 8 11 9 6 4 4 5 7 8 8 8 7 6 7 8 8 10 12 13 14 15 11 7 7 7 8 9 7 6 4 5 6 3 4 8 9 9 8 7 8 9 8 8 7 7 6
0 1 2 3 6 6 4 4 4 2 2 2 3 5 4 3 5 6 7 7 8 8 6 5 5 5 6 7 5 3 4 3 2 2 1 2 2 1 3 5 5 5 10 16 12 5 3 5 6 8 8 7 7 4 4 4 9 11 13 13 12 13 14 12 8 8 8 7 8 8 8 7 5 6 4 3 7 10 10 9 9 9 9 9 8 8 7 7
1 2 3 1 3 4 4 4 4 3 3 2 1 3 5 4 3 5 6 6 7 8 4 5 7 6 7 9 7 4 5 4 1 2 3 3 3 4 6 5 3 1 7 13 9 4 3 6 6 7 9 11 13 10 8 7 7 8 9 9 10 11 13 13 11 9 9 7 7 8 9 10 9 5 5 4 4 8 11 10 9 9 8 9 9 10 9 8
2 2 2 2 2 3 4 4 5 5 6 4 3 3 5 6 5 5 5 5 6 8 5 3 7 8 8 9 7 6 7 5 1 3 5 4 6 7 4 4 6 3 4 9 6 5 4 6 4 7 10 12 14 14 10 10 10 8 8 8 8 8 11 14 14 13 11 8 8 8 10 11 11 8 2 4 1 6 10 10 9 10 9 10 11 11 10 9
3 3 2 1 1 4 4 3 3 4 7 5 3 5 6 7 7 6 5 5 3 7 7 5 7 9 8 8 7 6 6 5 3 4 7 8 9 7 4 2 4 2 4 5 5 4 3 4 5 9 12 11 11 11 11 12 13 12 12 11 9 8 10 13 15 14 12 11 10 8 8 9 7 4 2 3 1 4 9 10 10 11 11 11 12 12 10 10
3 3 2 1 4 5 3 3 2 3 5 4 2 5 6 6 7 5 5 6 5 5 7 7 8 10 9 7 8 6 5 6 7 7 8 9 8 5 4 2 2 6 9 6 4 4 3 4 6 8 10 10 8 8 11 13 14 14 12 11 10 9 10 12 14 13 12 12 11 8 9 7 2 4 3 1 2 5 10 11 11 11 11 12 12 11 11 10
4 2 3 1 4 3 3 2 2 1 5 5 4 5 5 6 7 6 2 4 6 6 7 9 9 9 8 7 7 7 6 8 10 11 10 10 8 6 5 4 6 9 8 6 5 5 4 5 7 7 6 8 6 5 10 12 13 14 11 7 7 9 9 9 11 11 10 11 12 11 9 4 3 4 3 4 5 8 12 13 12 11 11 12 12 12 11 11
4 1 3 3 2 2 2 2 2 1 3 4 5 5 5 5 7 7 2 2 2 4 6 8 9 8 7 6 7 8 10 12 13 13 11 10 11 10 9 10 10 9 7 6 6 5 3 5 6 4 4 7 7 7 7 11 12 10 6 1 2 5 7 7 7 7 6 7 8 7 3 2 3 1 1 3 6 9 12 12 11 11 11 11 12 12 12 11
Wind_Direction
2 358 355 355 355 354 353 353 352 352 352 351 350 348 348 347 346 344 341 338 336 335 335 336 334 332 333 333 331 326 325 323 307 273 244 263 267 238 226 186 185 169 162 160 163 162 167 180 160 177 213 206 215 31 124 292 281 259 258 250 229 87 80 30 70 93 111 109 97 99 155 168 136 149 159 171 159 129 133 125 115 116 94 95 115 129 139 143
355 351 350 349 351 349 347 347 347 348 348 349 347 345 345 344 344 341 337 335 333 334 334 335 333 330 333 331 332 328 326 319 284 271 257 266 278 235 197 182 183 168 163 168 172 172 175 171 167 193 218 219 149 109 195 174 251 272 294 250 47 36 68 59 63 81 76 81 84 108 131 158 141 146 171 175 139 138 143 131 135 126 113 115 127 136 142 147
349 345 343 343 345 343 342 341 342 343 343 345 343 343 341 340 341 337 334 333 331 334 334 333 331 329 332 333 333 331 329 311 273 268 261 289 273 217 192 182 182 173 170 175 176 177 176 165 180 197 226 265 94 87 174 153 221 290 291 275 61 22 69 107 82 72 61 57 54 93 114 136 134 150 178 167 133 149 150 135 150 140 133 135 138 144 149 154
345 340 337 337 337 337 337 336 336 338 339 339 340 339 336 337 336 334 331 328 329 332 332 332 328 326 331 333 333 334 325 286 261 192 61 348 311 200 186 180 180 177 176 179 176 174 174 166 183 216 256 246 90 130 124 113 243 341 297 344 43 354 108 116 101 74 61 44 24 69 142 133 121 188 186 152 133 135 116 129 150 147 144 146 147 151 155 159
341 337 334 332 332 333 332 331 331 332 334 334 335 334 332 333 331 330 327 324 327 329 332 330 321 322 328 331 335 339 306 263 168 80 26 341 319 190 179 178 175 174 177 179 175 174 178 175 192 228 257 346 89 169 91 91 257 272 65 5 11 312 107 124 118 84 63 37 13 100 166 91 115 218 200 173 132 73 68 102 130 143 148 152 154 155 159 163
340 337 332 330 329 329 328 326 327 327 329 329 330 330 328 328 326 325 322 321 324 325 329 326 318 316 319 324 338 335 269 248 68 31 350 345 310 176 171 175 168 169 178 176 175 185 190 194 208 237 288 30 43 53 71 110 244 252 94 35 8 341 69 133 140 152 180 12 20 41 340 314 226 209 199 208 150 62 57 91 122 137 148 155 156 158 163 167
340 336 332 330 326 325 324 321 323 323 324 324 325 324 322 323 322 319 318 317 319 323 326 323 312 304 314 320 324 287 248 256 352 325 337 351 175 164 167 170 165 169 180 178 181 192 196 211 224 295 320 61 37 42 68 132 218 278 13 44 87 94 72 140 150 161 202 339 16 347 293 266 235 201 179 214 170 87 77 100 124 134 145 154 158 163 166 168
336 333 330 328 324 322 321 319 321 321 321 321 320 318 317 318 316 315 312 311 314 318 322 320 306 295 313 305 273 251 240 250 305 305 330 0 146 161 165 166 170 176 182 186 187 191 199 219 237 310 326 54 30 35 63 168 195 281 7 81 131 109 84 129 148 150 192 296 338 288 254 170 252 244 191 211 167 123 112 116 131 137 144 154 161 165 167 169
333 330 327 325 322 319 318 318 319 319 320 318 316 314 313 314 312 310 307 307 309 312 318 317 297 281 285 268 263 259 240 235 289 291 320 58 156 163 166 170 179 180 184 190 191 197 203 220 279 331 332 38 25 26 42 280 106 30 35 122 152 129 105 126 137 146 209 241 272 265 218 154 222 249 211 210 169 138 135 133 138 143 149 157 162 166 168 169
331 328 326 324 321 317 317 316 315 317 316 313 313 310 311 311 307 305 303 302 303 306 312 309 293 270 258 252 250 251 169 69 301 273 170 161 161 166 175 183 182 183 190 189 194 202 202 288 19 340 304 343 5 31 32 345 25 37 65 129 153 148 139 163 152 161 229 212 246 263 230 166 179 230 216 176 165 157 151 147 147 150 153 158 163 166 169 171
333 329 326 324 320 317 315 313 313 314 313 311 310 309 309 308 304 301 298 298 299 301 305 305 289 253 255 255 244 242 99 87 32 100 163 172 168 176 187 191 185 189 193 185 193 198 191 359 347 297 283 332 323 57 62 7 7 44 89 141 154 166 173 186 185 166 234 196 217 273 259 217 195 232 197 145 161 168 164 155 155 159 155 160 165 166 171 174
335 331 327 323 319 316 314 312 312 311 311 310 308 309 309 305 301 296 293 292 291 293 297 301 280 237 258 255 244 253 249 122 97 91 155 177 181 187 194 198 195 201 202 192 193 192 201 198 278 287 349 335 304 20 56 13 352 77 152 214 162 180 181 179 190 166 200 178 122 274 257 222 205 219 176 147 165 170 168 163 160 163 157 163 167 167 174 176
333 330 327 323 318 315 313 312 310 309 309 307 308 311 308 303 297 290 287 284 284 286 288 293 256 219 250 260 247 245 237 207 204 164 159 180 192 198 204 204 200 211 220 213 198 187 207 226 278 301 332 310 320 25 318 261 255 165 193 289 207 182 160 165 187 170 196 178 133 250 261 207 192 198 172 156 170 171 171 170 167 165 162 168 168 171 176 176
331 328 325 320 317 314 312 310 308 308 307 306 309 310 306 300 294 287 279 273 273 269 270 265 199 191 236 264 278 247 237 228 236 237 213 191 195 201 204 197 194 203 210 216 201 192 216 235 266 281 281 285 335 331 248 204 207 207 198 274 247 151 110 154 193 176 189 156 154 233 266 285 194 183 167 167 175 173 178 174 170 168 166 172 172 176 178 177
329 326 322 318 316 312 310 308 306 305 305 306 309 308 301 297 294 284 268 256 251 239 230 165 176 194 256 261 256 261 252 237 238 233 214 195 193 196 195 191 192 196 193 185 170 180 212 221 242 264 243 239 275 265 242 205 206 230 254 196 158 14 112 146 181 198 220 165 173 226 260 209 185 174 168 174 179 179 184 176 172 174 170 174 177 179 180 178
328 324 321 318 314 310 308 306 304 304 303 306 309 303 295 296 291 271 241 206 182 151 136 152 182 217 284 280 204 233 236 219 231 221 204 198 197 193 180 179 182 187 189 182 171 172 192 216 245 280 282 241 250 260 253 224 190 189 264 46 78 304 122 141 168 205 228 218 206 226 260 281 140 160 175 175 182 186 186 180 178 178 174 176 180 182 182 180
327 322 320 317 313 310 306 304 304 302 302 308 310 301 296 293 245 177 149 142 136 132 144 232 184 217 266 277 198 225 216 206 215 199 192 195 197 178 161 166 176 178 184 191 202 212 204 220 244 243 243 242 255 271 252 224 174 152 211 233 139 267 334 139 173 198 210 214 227 223 241 277 222 158 175 176 187 194 188 186 183 180 178 178 183 185 184 184
327 322 320 316 312 309 305 303 303 301 304 313 314 320 70 111 124 119 131 131 119 129 195 245 195 227 241 225 237 242 147 190 184 178 179 179 181 170 162 168 170 167 179 194 199 212 208 206 232 238 228 224 236 244 241 60 38 14 324 294 293 274 314 71 108 175 204 216 233 232 236 259 248 178 178 179 188 199 193 191 188 184 181 178 185 188 185 188
326 323 320 314 311 308 303 301 299 298 306 321 115 102 97 108 119 134 165 158 160 190 232 180 190 252 12 175 250 253 96 137 157 170 170 168 171 171 173 171 164 171 187 191 185 196 208 205 221 241 235 222 222 237 263 340 336 322 324 311 318 308 304 43 56 160 222 243 240 242 246 256 247 200 192 185 185 199 200 195 193 190 186 181 186 188 187 191
326 322 319 313 309 304 299 297 294 296 299 155 145 138 144 161 178 180 182 200 221 240 283 189 197 255 322 89 62 110 150 157 172 180 171 168 167 167 175 171 171 188 200 201 187 182 209 227 223 231 236 229 223 238 272 304 306 303 303 290 292 291 298 54 75 161 209 263 261 251 251 260 265 228 202 190 186 195 200 199 197 195 193 188 189 187 187 191
326 322 317 311 306 299 293 292 287 287 255 169 173 220 251 253 250 177 173 216 223 234 258 242 222 256 267 92 46 41 201 189 190 182 171 171 172 171 172 176 185 198 208 214 198 164 206 231 231 237 245 236 236 252 269 279 279 278 281 284 284 281 296 59 87 148 180 254 289 282 264 262 264 248 212 194 195 197 198 201 199 197 197 194 193 190 189 190
325 321 315 307 300 295 289 285 278 273 217 174 193 237 283 340 343 359 322 247 222 221 242 244 239 252 249 245 269 306 288 225 185 171 171 177 187 188 176 184 203 205 203 210 201 181 212 232 235 238 250 234 241 260 265 264 270 271 269 273 274 289 310 98 123 151 169 221 289 295 286 276 264 252 223 198 201 203 199 201 200 199 199 198 197 194 192 190
326 320 312 303 296 290 282 273 267 251 198 180 206 232 267 357 355 330 288 277 249 203 225 238 237 242 239 239 232 226 251 241 199 175 175 185 198 202 190 193 211 212 200 202 213 219 220 232 234 222 207 230 238 243 253 260 259 257 256 260 264 291 311 330 130 151 183 218 277 294 289 286 271 246 227 206 203 205 203 204 203 201 202 203 202 197 194 192
327 319 308 300 290 281 274 260 254 238 204 206 230 237 257 315 322 309 262 268 270 183 209 237 239 248 242 231 202 210 229 234 223 181 174 190 198 199 206 203 210 217 210 209 219 232 236 227 224 219 213 234 245 238 241 254 251 242 243 252 272 296 308 314 343 228 228 220 239 272 271 272 251 221 218 202 199 206 205 205 207 205 204 205 206 202 197 196
327 317 307 295 282 264 236 235 234 213 192 210 236 235 247 277 291 288 263 261 234 164 170 181 210 243 218 184 184 207 223 221 228 190 170 194 199 186 205 210 214 219 215 217 221 234 239 184 136 205 210 223 242 241 236 244 252 246 237 250 284 301 307 309 302 286 265 211 190 258 265 163 157 194 195 178 191 205 202 204 209 208 207 207 208 206 201 202
328 318 305 288 260 178 157 177 172 173 179 186 201 198 225 274 270 256 266 259 197 148 152 175 188 158 157 185 181 188 223 216 216 192 173 198 205 198 208 199 212 230 222 222 224 235 239 208 181 207 216 219 234 244 235 235 251 244 184 288 293 298 301 302 293 274 281 263 139 249 280 294 170 174 159 171 196 203 200 207 211 207 207 207 207 206 202 203
335 328 310 265 166 157 143 98 149 164 179 156 154 181 247 274 247 219 247 239 176 113 118 149 157 115 149 183 173 179 199 160 182 185 181 196 200 206 220 197 194 234 234 223 223 226 232 225 215 223 237 240 239 243 222 217 245 241 82 341 290 299 302 299 288 265 276 292 182 217 258 281 255 151 145 175 203 207 205 210 212 208 208 206 205 206 203 202
348 351 354 154 164 170 152 121 164 184 76 122 173 234 284 268 222 214 254 247 104 73 182 104 97 134 157 171 187 202 154 106 176 182 177 190 195 198 219 213 208 216 210 213 226 206 207 226 227 226 237 242 239 248 228 208 240 249 47 311 293 300 299 294 278 255 256 263 226 197 227 262 257 141 146 170 201 222 218 214 213 210 209 206 204 205 204 203
4 18 60 124 156 174 167 159 205 253 92 135 224 280 279 229 204 222 256 278 97 165 51 118 148 165 162 167 202 224 227 208 229 165 167 183 198 211 227 225 227 218 202 215 239 217 173 228 239 231 235 237 235 243 234 221 240 254 247 264 261 268 286 285 263 243 238 249 244 198 227 263 273 162 159 181 210 233 226 218 215 211 209 206 203 203 203 202
20 38 78 104 120 154 170 175 219 198 144 283 313 298 211 194 216 243 237 311 34 54 89 160 146 138 192 194 199 212 219 223 100 141 174 177 189 208 238 235 235 229 207 215 239 245 175 166 254 239 240 252 248 240 230 229 236 231 229 240 233 229 268 275 247 234 238 236 235 266 257 267 275 213 146 158 189 251 227 204 204 206 207 207 205 202 200 200
33 55 85 97 105 140 164 155 168 206 284 315 326 203 204 202 244 261 233 79 341 17 96 220 13 92 224 244 236 197 203 211 152 159 180 174 183 198 206 213 218 224 221 216 233 243 230 214 224 232 237 259 258 233 206 215 219 217 235 242 236 223 235 245 226 228 249 241 160 201 259 260 258 251 54 69 167 242 244 193 179 196 198 202 206 204 199 198
53 72 86 93 96 111 123 82 97 286 308 308 228 208 227 237 232 277 29 168 253 8 21 350 342 319 269 267 259 217 204 206 184 175 184 184 186 193 202 203 190 204 223 220 221 233 233 231 233 228 220 228 241 224 186 190 204 214 226 232 239 236 229 239 231 230 249 240 151 246 251 254 259 259 279 304 293 259 262 259 254 228 199 194 200 204 200 196
74 80 83 81 72 58 13 12 360 330 326 249 226 228 254 266 221 35 8 360 14 6 345 324 326 328 307 278 242 201 201 195 187 192 194 194 196 197 204 209 206 211 226 223 221 226 224 222 225 226 216 211 228 232 196 188 197 210 220 222 231 237 235 243 236 233 244 223 147 272 243 247 254 242 253 306 348 2 311 290 283 265 219 189 189 201 198 194
81 79 76 63 50 41 22 10 1 350 327 230 230 239 252 272 44 38 341 6 3 337 320 319 318 301 275 357 30 164 195 184 180 194 187 190 207 204 201 210 215 222 235 234 233 234 232 222 203 209 208 198 213 231 237 229 208 208 221 229 234 241 247 254 247 247 256 224 158 191 225 254 260 203 253 299 321 254 232 274 248 167 197 178 174 191 194 193
85 76 66 53 38 23 7 360 357 349 309 240 235 252 262 319 29 353 347 357 341 328 323 318 305 279 152 62 50 162 246 198 180 197 194 192 212 210 200 204 209 216 229 235 233 225 242 257 179 189 201 194 203 218 236 253 236 201 213 228 234 240 246 260 268 275 288 274 226 213 233 270 277 277 271 267 268 250 231 238 195 165 171 175 172 180 188 191
93 76 64 55 27 2 351 350 351 339 285 245 237 257 339 30 9 348 1 340 322 329 315 298 313 318 324 52 64 118 276 194 168 191 199 186 199 241 232 214 203 215 224 231 235 223 238 243 145 171 203 206 210 211 210 226 234 185 206 224 223 242 260 262 260 260 270 267 247 220 242 253 246 251 265 268 268 240 192 195 175 152 159 171 173 175 182 187
127 95 74 52 12 356 350 349 343 317 257 253 258 18 19 45 10 348 351 326 310 314 302 292 17 338 310 323 45 85 184 153 148 192 200 167 88 18 345 344 18 236 238 248 255 245 252 252 147 185 213 203 216 227 207 212 225 212 217 224 208 219 257 263 261 243 242 254 246 231 254 257 236 211 201 244 262 194 151 164 145 141 154 165 163 165 175 181
225 211 100 35 1 351 350 350 334 281 242 245 128 79 7 31 25 350 340 330 304 277 291 333 15 333 327 338 36 53 269 202 153 178 116 97 62 21 360 350 29 334 280 270 258 228 265 272 216 200 215 177 180 225 210 201 221 237 257 241 212 220 231 229 245 253 250 257 251 238 253 264 256 234 208 233 280 84 140 149 145 151 155 154 150 151 162 172
251 231 118 25 353 347 348 344 305 252 233 220 125 107 16 20 26 0 350 341 299 284 315 14 5 334 7 2 21 44 357 197 144 150 88 352 2 42 25 13 359 340 329 268 249 236 247 262 230 149 156 169 177 208 210 184 201 231 254 237 221 235 246 228 231 250 257 261 260 247 247 252 241 237 246 266 334 352 152 147 151 157 147 139 136 138 153 163
265 247 94 18 345 346 343 313 258 239 215 67 61 74 43 17 16 16 12 351 319 329 348 3 338 331 15 9 25 41 25 111 126 137 128 14 26 74 38 13 349 337 327 262 247 245 231 236 241 157 140 194 195 199 215 203 191 205 218 222 217 216 243 255 245 245 257 263 263 260 254 249 145 144 289 310 17 342 169 146 152 150 129 120 117 119 138 152
256 235 77 6 343 341 322 277 234 7 101 98 72 57 39 354 354 20 25 2 359 15 356 355 354 349 353 351 22 28 15 118 119 130 129 76 62 86 35 9 344 333 312 254 233 235 227 222 240 232 197 221 207 185 215 235 220 211 212 217 222 220 226 242 241 233 243 257 257 265 266 259 109 150 281 12 93 91 125 139 144 135 118 111 107 110 120 136
240 223 43 357 345 334 301 256 102 16 46 90 71 42 23 338 349 17 22 6 14 25 2 3 3 4 10 356 353 360 351 41 83 112 138 123 115 86 27 4 336 327 315 289 263 243 252 248 241 241 234 236 210 146 188 288 298 268 247 230 227 224 223 231 237 228 228 241 246 260 264 243 103 141 160 88 100 103 102 129 135 124 114 112 110 109 113 121
266 48 40 356 348 323 283 145 124 158 70 84 107 61 36 17 16 24 25 17 16 11 9 30 15 11 27 5 345 345 343 342 48 69 115 133 118 83 24 3 344 338 350 344 333 313 278 251 238 241 244 248 237 185 203 260 284 268 251 243 242 238 233 235 243 245 236 233 229 240 246 209 95 55 58 87 112 132 126 131 132 124 120 119 113 109 113 119
61 67 53 7 358 314 265 64 104 118 90 104 114 83 68 47 30 24 31 28 20 5 4 35 24 7 11 2 354 2 351 330 136 87 76 171 122 79 10 359 349 342 5 1 334 321 276 233 226 229 224 226 224 212 209 215 237 244 228 225 231 235 241 241 242 249 245 238 239 244 246 205 134 133 139 119 132 142 139 137 135 131 130 127 118 113 117 120
103 120 73 28 23 22 33 23 9 89 101 109 88 62 63 80 46 22 27 32 25 13 9 22 4 344 350 346 348 19 9 348 295 105 172 239 190 80 336 351 343 324 336 336 314 290 266 240 235 239 226 213 207 205 210 204 204 220 227 227 226 226 232 234 230 233 234 238 242 246 252 223 153 131 129 138 140 143 144 143 138 132 131 129 123 121 120 120
261 70 68 55 49 56 71 39 357 38 83 95 82 40 17 80 74 27 19 30 28 15 11 22 357 334 351 344 327 5 24 15 342 316 292 281 295 330 303 316 322 316 323 317 303 284 269 250 242 250 256 260 254 267 310 253 207 201 209 218 226 229 231 230 227 228 229 231 234 232 242 244 196 142 129 148 151 152 154 151 141 134 133 128 121 119 118 118
3 36 22 30 68 68 78 56 27 38 41 7 25 20 13 40 67 38 26 26 22 5 358 39 22 3 11 357 331 332 353 349 337 347 336 323 327 315 290 272 237 256 304 302 306 340 300 258 242 255 262 266 271 283 304 288 243 213 208 215 220 223 226 227 227 225 223 229 234 225 222 234 234 199 140 116 142 161 163 159 148 139 134 127 121 119 120 120
34 70 24 327 328 43 56 37 23 46 59 54 47 20 22 35 39 39 29 16 20 10 354 38 32 16 12 359 334 328 339 321 250 32 5 346 341 330 297 202 169 162 272 284 311 355 296 268 281 290 277 266 266 268 266 263 258 249 247 246 234 218 214 221 226 219 212 223 238 224 206 214 238 248 143 81 100 177 166 158 146 137 134 130 127 126 126 127
61 90 66 309 352 52 55 12 357 53 58 49 54 39 27 36 39 35 14 352 22 27 359 351 14 1 352 350 332 328 345 323 300 7 360 342 339 337 322 201 165 68 352 303 304 344 311 274 280 296 295 280 259 248 242 242 243 242 243 244 243 233 216 217 224 219 212 225 238 234 220 214 226 266 18 46 304 178 153 148 143 140 141 137 133 131 130 130
37 52 37 94 86 60 45 13 347 79 60 20 36 45 24 29 33 24 10 356 2 23 1 347 353 340 328 331 315 307 343 334 309 319 328 325 328 335 343 348 352 354 350 339 325 332 320 277 282 300 299 277 245 227 229 230 229 230 232 232 235 241 232 220 220 218 215 225 233 239 244 233 156 86 89 127 205 164 149 152 150 146 149 145 136 133 131 128
17 14 333 352 84 27 353 39 4 63 64 30 22 29 12 23 19 350 349 21 3 4 358 343 338 329 316 311 303 305 331 325 304 301 305 304 302 308 311 308 319 328 331 337 332 313 301 293 298 309 291 268 265 240 222 216 217 219 213 215 229 234 236 227 215 216 222 227 229 232 239 234 93 99 140 158 179 169 159 160 155 150 155 149 137 134 134 131
1 36 304 295 89 23 328 66 29 16 66 31 17 19 355 4 4 335 321 95 29 10 359 333 327 324 311 310 325 333 329 315 302 298 297 287 280 281 278 276 285 294 296 309 313 299 295 295 295 310 286 265 285 297 247 205 201 204 178 124 278 237 234 232 211 210 231 239 235 233 240 25 34 6 166 156 176 175 164 161 157 154 155 147 136 134 135 135